Flag for U.S.A. Weather past 2 weeks in Dayton, Ohio, U.S.A.

Now
68 °F

Clear.


Feels Like: 68 °F
Forecast: 67 / 83 °F
Wind: 3 mph from South

Location: Dayton / Wright-Patterson Air Force Base

Current Time: Aug 30, 2015 at 4:03:47 AM

Latest Report: Aug 30, 2015 at 2:58 AM


Visibility: 10 mi

Pressure: 30.07 "Hg

Humidity: 96%

Dew point: 67 °F

Location of DaytonLocation

Historic Weather in Dayton — Graph

°F

Dayton temperature yesterday

Maximum temperature yesterday: 84 °F (at 4:58 PM)
Minimum temperature yesterday: 60 °F (at 1:58 AM)
Average temperature yesterday: 73 °F

Past Weeks' High & Low Weather Summary

 TemperatureHumidityPressure
High87 °F (Aug 16, 5:58 PM)100% (Aug 16, 3:58 AM)30.21 "Hg (Aug 16, 3:58 AM)
Low53 °F (Aug 25, 6:58 AM)38% (Aug 21, 4:58 PM)29.78 "Hg (Aug 19, 4:58 PM)
Average70 °F74%30.05 "Hg
* Reported Aug 15 2:58 AM — Aug 30 2:58 AM, Dayton, Weather by CustomWeather, © 2015

Note: Actual official high and low records may vary slightly from our data, if they occured in-between our weather recording intervals... More about our weather records

Advertising

Dayton weather history for previous 24 hours

 ConditionsComfort  
Time TempWeatherWind HumidityBarometerVisibility
2:58 AM
Sun, Aug 30
68 °FClear.3 mph96%30.07 "Hg10 mi
1:58 AM69 °FRain. Fog.6 mph94%30.07 "Hg6 mi
12:58 AM70 °FThunderstorms. Partly cloudy.8 mph92%30.07 "Hg6 mi
11:58 PM
Sat, Aug 29
73 °FPassing clouds.3 mph85%30.06 "Hg7 mi
10:58 PM73 °FPassing clouds.5 mph83%30.06 "Hg10 mi
9:58 PM74 °FPartly cloudy.3 mph81%30.06 "Hg10 mi
8:58 PM75 °FSunny.3 mph73%30.06 "Hg10 mi
7:58 PM76 °FPartly sunny.6 mph69%30.05 "Hg10 mi
6:58 PM77 °FPartly sunny.3 mph66%30.05 "Hg10 mi
5:58 PM83 °FBroken clouds.18 mph55%30.06 "Hg10 mi
4:58 PM84 °FScattered clouds.7 mph52%30.05 "Hg10 mi
3:58 PM84 °FPassing clouds.14 mph51%30.06 "Hg10 mi
2:58 PM82 °FPassing clouds.12 mph60%30.09 "Hg10 mi
1:58 PM84 °FScattered clouds.9 mph56%30.10 "Hg10 mi
12:58 PM82 °FScattered clouds.6 mph61%30.12 "Hg10 mi
11:58 AM80 °FBroken clouds.8 mph66%30.12 "Hg10 mi
10:58 AM78 °FBroken clouds.8 mph68%30.13 "Hg10 mi
9:58 AM72 °FPartly sunny.5 mph74%30.13 "Hg10 mi
8:58 AM67 °FScattered clouds.3 mph79%30.14 "Hg10 mi
7:58 AM63 °FClear.1 mph87%30.14 "Hg10 mi
6:58 AM63 °FClear.2 mph91%30.13 "Hg10 mi
5:58 AM62 °FPassing clouds.1 mph89%30.13 "Hg10 mi
4:58 AM63 °FClear.1 mph83%30.11 "Hg10 mi
Weather by CustomWeather, © 2015

See weather overviewHow to use our weather pages